Temperature
6 6 6 6 5 5 5 5 4 3 4 5 5 4 4 4 4 4 4 4 3 3 4 3 3 3 3 3 3 3 3 3 3 3 3 3 3 3
6 6 6 5 5 5 5 4 4 3 3 4 4 4 4 3 3 3 3 3 3 3 3 3 3 3 3 3 3 3 2 2 2 2 2 2 2 2
6 5 5 5 5 5 4 4 4 3 3 3 4 3 3 3 3 3 3 3 2 2 2 2 2 2 2 2 2 2 2 2 2 2 1 1 1 1
5 5 5 4 4 4 4 4 3 3 2 3 3 3 3 3 2 2 2 2 2 2 2 2 2 2 2 2 1 1 1 1 1 1 1 1 1 1
5 5 4 4 4 4 3 3 3 3 2 2 2 3 2 2 2 2 2 2 2 2 1 1 1 1 1 1 1 1 1 1 1 0 0 0 0 0
4 4 4 4 3 3 3 3 2 2 2 2 2 2 2 2 1 1 1 1 1 1 1 1 1 1 1 0 0 0 0 0 0 -0 -0 -0 -0 -0
4 4 3 3 3 3 2 2 2 2 1 1 1 1 1 1 1 0 0 0 1 1 1 1 0 0 0 -0 -0 -0 -0 -0 -0 -1 -1 -1 -1 -1
3 3 3 3 3 2 2 2 1 1 1 1 1 1 1 0 -0 -0 -1 -1 -1 -0 -0 -0 -0 -0 -1 -1 -1 -1 -1 -1 -1 -1 -1 -1 -2 -2
3 3 3 2 2 2 2 1 1 1 0 0 -0 0 -0 -0 -1 -1 -1 -2 -2 -2 -2 -1 -1 -1 -1 -1 -1 -1 -1 -1 -1 -2 -2 -2 -2 -2
2 2 2 2 2 1 1 1 1 1 0 -0 -1 -1 -1 -1 -2 -2 -2 -2 -2 -2 -3 -3 -2 -2 -2 -2 -2 -2 -2 -2 -2 -2 -2 -2 -2 -2
2 1 1 1 1 1 1 0 0 0 -0 -1 -1 -1 -2 -2 -2 -2 -3 -3 -3 -3 -3 -4 -3 -3 -2 -2 -2 -2 -3 -3 -3 -3 -3 -3 -3 -3
1 1 1 0 0 0 -0 -0 -0 -1 -1 -1 -1 -2 -2 -2 -2 -3 -3 -4 -4 -4 -4 -4 -4 -4 -4 -3 -3 -3 -3 -3 -3 -3 -3 -3 -3 -3
0 0 0 -0 -0 -1 -1 -1 -1 -1 -2 -2 -2 -2 -2 -2 -3 -3 -4 -4 -4 -5 -5 -5 -5 -5 -5 -5 -4 -3 -3 -3 -3 -4 -4 -4 -4 -4
-0 -0 -0 -1 -1 -1 -1 -2 -2 -2 -2 -2 -2 -2 -3 -3 -3 -4 -4 -4 -5 -5 -5 -5 -6 -6 -6 -6 -5 -4 -4 -4 -4 -4 -4 -4 -4 -4
-1 -1 -1 -1 -1 -1 -2 -2 -2 -3 -3 -3 -3 -3 -4 -4 -4 -4 -4 -5 -5 -5 -5 -5 -6 -6 -6 -6 -6 -5 -5 -5 -5 -5 -5 -4 -4 -4
-1 -1 -1 -2 -2 -2 -2 -2 -3 -3 -3 -4 -4 -4 -4 -5 -5 -5 -5 -5 -5 -5 -5 -6 -6 -6 -6 -6 -6 -6 -6 -6 -5 -5 -5 -5 -5 -5
-2 -2 -2 -2 -2 -3 -3 -3 -3 -4 -4 -4 -5 -5 -5 -5 -5 -5 -6 -6 -6 -6 -6 -6 -6 -6 -6 -6 -6 -6 -6 -6 -6 -6 -6 -5 -5 -5
-2 -3 -3 -3 -3 -3 -3 -4 -4 -4 -5 -5 -5 -6 -6 -6 -6 -6 -6 -6 -6 -6 -6 -6 -6 -6 -6 -6 -6 -6 -6 -6 -6 -6 -6 -6 -5 -5
-3 -3 -3 -3 -3 -4 -4 -4 -4 -5 -5 -6 -6 -6 -6 -6 -6 -6 -6 -7 -7 -7 -7 -7 -7 -7 -7 -7 -6 -6 -7 -7 -7 -7 -7 -7 -6 -5
-3 -4 -4 -4 -4 -4 -4 -5 -5 -5 -6 -6 -6 -6 -7 -7 -7 -7 -7 -7 -7 -7 -7 -7 -7 -7 -8 -8 -7 -7 -7 -7 -7 -7 -7 -7 -6 -6
-4 -4 -4 -4 -5 -5 -5 -5 -6 -6 -6 -6 -7 -7 -7 -7 -7 -7 -7 -7 -8 -8 -7 -7 -7 -8 -8 -8 -8 -7 -7 -7 -7 -8 -7 -7 -7 -7
-4 -4 -5 -5 -5 -6 -6 -6 -6 -6 -7 -7 -7 -7 -7 -7 -8 -8 -8 -8 -8 -8 -8 -8 -8 -8 -8 -8 -8 -8 -7 -7 -7 -7 -8 -8 -8 -8
-5 -5 -5 -5 -6 -6 -6 -6 -7 -7 -7 -7 -7 -7 -8 -8 -8 -8 -8 -8 -8 -8 -8 -8 -8 -8 -8 -8 -8 -8 -8 -8 -8 -8 -7 -8 -8 -8
Wind_Speed
4 4 3 3 3 3 3 3 3 3 4 4 3 2 3 5 7 7 7 9 10 11 11 12 11 11 10 10 10 10 10 10 11 11 11 11 11 11
3 4 4 3 3 2 3 3 4 4 4 3 3 3 4 6 8 8 9 10 11 12 12 12 12 11 10 10 10 10 10 11 11 11 11 11 11 11
4 4 5 4 3 3 3 3 3 4 6 5 3 3 3 4 6 8 10 10 10 11 12 12 12 11 11 10 10 10 10 11 11 11 11 11 11 11
5 5 5 4 4 4 4 4 4 5 5 7 4 3 5 5 5 5 7 8 9 11 12 12 12 11 11 11 11 11 10 10 11 11 11 11 11 11
6 6 6 5 6 5 5 5 5 4 4 5 5 3 3 3 4 4 4 5 8 10 11 11 12 12 12 12 12 11 11 11 11 11 11 11 11 11
5 6 6 6 7 6 6 6 5 4 4 4 5 4 4 4 3 4 4 4 5 7 9 10 11 12 12 12 12 12 12 12 12 11 11 11 11 11
5 6 6 8 9 8 6 6 5 5 4 4 5 4 4 3 4 3 4 5 5 4 3 5 6 6 9 11 12 13 13 13 12 12 12 12 11 11
5 5 5 6 7 9 10 9 8 7 6 5 5 6 7 5 4 4 4 4 4 2 2 5 3 5 7 10 13 14 14 14 13 13 12 12 12 12
5 5 5 5 6 5 7 9 8 10 11 7 8 8 7 6 5 5 5 6 6 4 3 5 3 5 6 11 14 14 13 13 13 13 12 12 12 12
5 6 6 6 5 5 5 5 6 6 8 6 7 8 7 6 6 6 6 5 5 3 3 5 4 4 5 8 12 12 12 12 12 12 12 12 12 12
5 5 5 6 8 8 5 5 6 6 8 10 11 11 12 12 8 3 3 4 5 4 3 3 3 4 4 4 8 10 10 10 10 11 12 12 12 11
4 4 6 7 9 8 5 5 7 7 5 5 6 8 7 8 10 5 4 5 5 4 3 3 3 2 4 3 3 5 7 9 11 12 12 11 11 8
4 3 4 7 9 9 7 5 8 7 5 5 5 4 4 4 5 5 5 5 6 6 3 3 3 3 4 4 4 4 4 4 6 7 10 11 12 9
4 4 4 8 9 9 7 8 10 8 4 3 4 4 4 5 5 5 6 7 8 8 7 5 4 4 4 6 5 3 3 4 4 5 5 9 11 12
4 7 8 9 9 7 8 9 7 4 3 4 5 5 4 5 4 3 4 6 7 9 9 9 6 5 6 7 5 5 4 4 4 4 4 4 5 5
4 6 8 8 7 6 6 5 3 4 4 5 5 4 3 3 4 3 4 4 4 5 6 9 8 7 7 7 7 7 5 4 3 4 5 5 6 7
3 2 2 2 3 3 3 3 3 3 4 4 4 4 4 4 4 3 4 4 5 6 5 4 5 7 8 7 7 8 6 6 6 5 5 6 6 6
4 2 3 4 4 4 4 4 4 4 4 4 4 4 5 5 5 4 4 5 6 6 6 4 3 3 3 4 8 7 6 6 5 5 5 6 8 6
3 4 4 5 5 5 5 5 5 5 4 4 5 5 5 5 5 5 5 5 6 6 6 4 3 4 5 6 4 7 6 5 4 5 5 6 7 7
3 4 5 5 5 5 5 5 5 5 4 5 5 5 5 5 6 6 5 6 6 6 5 4 5 5 6 6 4 4 7 6 5 5 5 5 6 9
4 5 5 5 5 5 5 5 5 5 5 5 5 5 5 5 6 6 6 8 7 6 7 6 6 7 4 2 3 4 4 7 8 5 4 4 5 4
5 5 5 5 5 5 5 5 6 6 6 6 6 6 5 6 7 7 6 6 6 6 7 5 4 3 3 4 6 5 5 5 7 10 10 9 4 4
5 5 5 5 5 5 5 6 7 6 6 6 6 6 6 6 6 6 6 6 6 6 5 4 3 3 4 5 5 5 6 5 4 4 6 10 13 16
Wind_Direction
213 215 217 223 211 206 195 184 191 254 274 273 281 273 272 275 278 280 282 294 302 305 305 303 302 301 303 307 310 311 312 313 311 310 310 311 313 316
214 215 224 224 220 213 205 204 198 207 249 261 257 272 272 277 281 281 279 288 295 299 301 301 300 299 300 302 304 305 306 306 305 305 305 307 309 310
233 224 234 229 225 226 216 213 212 204 241 268 253 262 259 263 282 279 279 277 283 291 293 294 294 294 295 297 297 296 297 299 301 303 305 306 308 309
239 233 242 238 234 231 223 224 224 216 225 259 269 261 256 256 260 267 276 275 276 284 288 289 288 289 291 293 292 290 291 293 295 297 299 301 303 305
234 233 238 230 238 236 231 233 234 231 220 240 264 259 267 269 273 274 271 275 280 282 283 283 285 286 288 287 288 288 288 289 290 291 291 293 296 299
238 236 237 231 236 236 237 235 232 234 228 237 257 266 265 266 256 269 286 279 283 285 278 281 283 285 285 285 286 287 285 286 285 283 285 288 291 294
252 246 244 244 244 243 241 231 224 231 235 241 254 264 265 266 260 254 273 289 285 263 274 280 281 280 280 283 286 283 281 282 280 279 283 286 286 288
256 260 259 255 258 262 262 253 232 226 230 239 251 256 264 259 256 257 267 286 291 266 265 281 253 264 268 271 276 277 277 278 276 275 278 281 283 285
249 257 265 259 264 253 266 271 264 256 248 242 250 257 261 254 248 256 252 251 261 259 261 278 263 267 270 274 278 274 273 276 278 275 275 277 280 285
247 245 251 262 259 254 250 260 261 262 260 251 246 255 255 252 241 248 256 262 264 255 216 267 273 269 280 276 274 272 275 278 278 275 277 280 283 286
258 253 251 257 271 276 259 259 272 273 272 263 260 264 269 272 269 256 253 264 281 273 212 238 270 284 280 271 272 273 274 277 279 280 283 283 285 289
269 264 264 268 279 281 257 246 264 272 272 276 274 275 274 274 276 254 236 253 271 275 222 218 258 288 295 275 273 279 278 277 278 281 282 283 285 285
267 269 264 281 287 287 278 255 262 274 266 260 267 270 270 264 263 253 234 235 250 256 233 208 238 238 256 284 286 269 261 271 279 282 281 282 284 281
261 261 263 282 286 287 284 277 283 288 271 264 269 273 271 267 261 253 250 246 245 251 246 226 235 241 257 273 277 277 274 267 264 271 268 280 285 285
260 270 276 283 288 283 278 283 287 279 266 266 267 268 262 260 259 261 260 258 257 259 254 237 235 242 246 258 267 270 283 276 257 253 264 273 277 281
276 279 286 288 283 278 282 287 273 259 261 259 263 268 269 264 261 258 266 271 272 273 256 246 240 238 249 252 257 266 261 261 268 261 271 276 274 265
274 270 274 282 275 274 275 270 265 266 269 260 263 272 275 272 272 261 257 264 265 276 278 263 250 248 247 249 258 260 260 262 261 266 273 280 274 265
277 257 260 260 263 266 269 271 263 261 260 260 263 266 270 273 279 273 261 262 269 272 272 269 271 280 273 259 237 250 254 259 264 260 258 274 282 275
262 256 260 260 259 258 258 261 264 261 258 259 260 261 265 270 273 274 270 268 268 268 265 255 244 244 263 275 262 227 241 264 270 270 259 259 274 281
248 255 260 261 261 261 260 262 265 266 260 259 260 259 261 267 271 270 266 265 269 270 268 253 237 234 243 257 263 261 244 250 259 269 276 275 274 280
255 256 258 260 260 260 262 260 260 263 262 259 260 261 259 263 268 267 265 268 268 267 265 261 249 251 250 244 265 271 266 253 254 261 270 281 285 286
258 257 257 256 257 257 258 259 263 263 261 256 256 257 256 258 264 266 264 265 264 264 264 265 255 240 221 233 256 269 280 287 278 272 263 248 242 249
259 258 258 256 254 255 256 257 259 261 258 255 256 254 253 256 258 260 261 260 263 264 265 266 254 234 235 240 255 268 275 284 290 291 280 269 261 262
Height
1507 1508 1508 1508 1507 1507 1507 1506 1506 1504 1502 1501 1502 1501 1500 1499 1498 1497 1495 1493 1492 1490 1488 1487 1485 1483 1481 1480 1478 1476 1475 1473 1472 1471 1470 1468 1467 1466
1503 1503 1503 1503 1503 1503 1503 1502 1502 1501 1499 1497 1497 1497 1496 1495 1494 1492 1491 1489 1487 1485 1484 1482 1480 1479 1477 1475 1473 1472 1470 1469 1468 1466 1465 1464 1462 1461
1499 1499 1499 1499 1499 1499 1498 1498 1497 1496 1494 1493 1493 1492 1491 1490 1489 1487 1486 1484 1483 1481 1479 1477 1475 1474 1472 1471 1469 1467 1466 1464 1463 1462 1461 1459 1458 1457
1495 1494 1494 1494 1494 1494 1493 1493 1492 1491 1490 1488 1487 1486 1486 1485 1483 1482 1481 1479 1478 1476 1474 1472 1471 1469 1467 1466 1464 1463 1461 1460 1458 1457 1456 1454 1453 1452
1490 1490 1490 1490 1489 1489 1488 1487 1487 1486 1485 1483 1481 1481 1480 1479 1477 1476 1475 1473 1472 1470 1469 1467 1466 1464 1462 1461 1459 1458 1456 1455 1453 1452 1451 1450 1448 1447
1486 1485 1485 1484 1484 1483 1482 1482 1481 1480 1479 1478 1476 1475 1474 1473 1472 1470 1468 1467 1466 1465 1463 1462 1460 1459 1457 1455 1454 1452 1451 1450 1448 1447 1446 1445 1443 1442
1481 1480 1480 1479 1478 1477 1476 1476 1475 1474 1473 1472 1470 1469 1468 1468 1466 1465 1462 1461 1459 1458 1456 1456 1454 1453 1451 1450 1448 1447 1445 1444 1443 1441 1440 1440 1439 1437
1476 1475 1474 1474 1472 1472 1471 1470 1470 1469 1467 1466 1465 1463 1462 1462 1461 1459 1457 1455 1453 1453 1450 1449 1448 1446 1445 1444 1442 1441 1439 1438 1437 1436 1435 1434 1433 1432
1470 1470 1469 1468 1467 1466 1465 1464 1464 1463 1463 1462 1459 1458 1457 1456 1455 1453 1452 1450 1448 1447 1445 1441 1442 1440 1439 1437 1436 1435 1434 1432 1431 1430 1429 1429 1428 1427
1465 1464 1463 1463 1462 1460 1459 1458 1458 1457 1457 1455 1454 1453 1452 1451 1449 1448 1446 1443 1442 1441 1440 1436 1435 1434 1433 1431 1430 1429 1428 1427 1426 1425 1424 1423 1422 1422
1460 1460 1458 1457 1457 1455 1454 1453 1452 1452 1451 1449 1448 1447 1446 1445 1444 1442 1440 1438 1435 1434 1434 1432 1429 1427 1426 1425 1425 1424 1423 1422 1421 1420 1419 1418 1417 1416
1456 1455 1454 1452 1452 1450 1449 1447 1446 1445 1444 1443 1442 1441 1440 1439 1438 1437 1435 1433 1430 1429 1427 1427 1425 1423 1420 1419 1419 1419 1418 1417 1415 1414 1413 1412 1411 1410
1450 1450 1449 1448 1446 1445 1444 1443 1441 1440 1439 1437 1436 1435 1434 1433 1432 1431 1429 1428 1426 1424 1424 1423 1420 1419 1418 1414 1413 1413 1412 1411 1410 1408 1407 1407 1406 1405
1445 1445 1444 1442 1441 1440 1439 1438 1436 1435 1433 1432 1430 1429 1428 1427 1426 1424 1423 1422 1421 1419 1418 1417 1415 1414 1412 1410 1408 1406 1406 1405 1404 1403 1402 1401 1400 1399
1441 1440 1438 1437 1436 1435 1434 1433 1432 1430 1428 1427 1425 1424 1423 1421 1420 1418 1417 1416 1414 1413 1412 1411 1410 1408 1407 1405 1402 1401 1400 1399 1398 1397 1396 1395 1394 1393
1436 1434 1433 1432 1431 1430 1429 1428 1426 1425 1423 1422 1420 1419 1417 1416 1414 1413 1411 1410 1408 1406 1406 1405 1404 1403 1401 1399 1398 1395 1395 1393 1392 1391 1390 1389 1388 1387
1431 1429 1428 1427 1426 1425 1424 1423 1421 1420 1418 1417 1415 1414 1412 1411 1409 1408 1406 1405 1403 1401 1400 1399 1398 1397 1395 1394 1392 1390 1389 1388 1387 1386 1384 1382 1382 1381
1426 1424 1423 1422 1421 1419 1418 1417 1416 1414 1413 1412 1410 1409 1407 1406 1404 1403 1401 1400 1398 1396 1394 1393 1392 1391 1390 1388 1387 1385 1384 1383 1381 1380 1379 1377 1375 1375
1421 1419 1418 1417 1416 1414 1413 1412 1410 1409 1408 1406 1405 1404 1402 1400 1399 1397 1396 1394 1393 1391 1390 1389 1388 1386 1384 1382 1381 1381 1379 1377 1376 1375 1373 1372 1370 1369
1417 1415 1414 1412 1411 1409 1408 1406 1405 1404 1402 1401 1400 1398 1397 1395 1394 1392 1391 1389 1388 1386 1385 1384 1383 1382 1380 1379 1376 1375 1375 1373 1371 1369 1368 1367 1365 1364
1412 1410 1408 1407 1405 1404 1402 1401 1399 1398 1397 1395 1394 1393 1391 1390 1388 1387 1386 1384 1383 1381 1380 1378 1378 1377 1376 1374 1372 1370 1370 1369 1367 1366 1364 1362 1360 1358
1406 1404 1403 1401 1400 1398 1396 1395 1393 1392 1391 1389 1388 1387 1386 1384 1383 1382 1380 1379 1378 1376 1375 1374 1373 1372 1371 1370 1367 1366 1365 1364 1363 1362 1360 1359 1357 1354
1400 1399 1397 1395 1394 1392 1391 1389 1387 1386 1385 1384 1382 1381 1380 1379 1378 1376 1375 1374 1373 1372 1370 1369 1368 1367 1366 1365 1364 1362 1361 1359 1358 1357 1356 1355 1353 1352